When you browse on this site, cookies collect data to enhance your experience and personalize the content and advertising you see.
Visit our Privacy Policy to learn more. By continuing to use the site, you agree to this use of cookies and data.
  • In Hungary
  • List of Countries
  • For 7 days
  • Water Temperature
  • Satellite Maps
  • Weather Map
  • News
  • Weather Widgets
  • user-avatar
    Login

    Hourly Weather Chinna Salem

    Today, 17 November, Saturday

    Time Temperature Precipitation Wind Pressure Humidity
    00:00 +25°C° 0 mm 1 mps 748 mmHg 92%
    01:00 +25°C° 0 mm 1 mps 748 mmHg 93%
    02:00 +25°C° 0 mm 1 mps 747 mmHg 93%
    03:00 +25°C° 0 mm 1 mps 748 mmHg 93%
    04:00 +25°C° 0 mm 1 mps 748 mmHg 93%
    05:00 +25°C° 0 mm 1 mps 748 mmHg 93%
    06:00 +26°C° 0 mm 1 mps 748 mmHg 88%
    07:00 +27°C° 0 mm 1 mps 748 mmHg 83%
    08:00 +28°C° 0 mm 1 mps 749 mmHg 78%
    09:00 +30°C° 0.1 mm 1 mps 748 mmHg 72%
    10:00 +31°C° 0.1 mm 2 mps 748 mmHg 66%
    11:00 +32°C° 0 mm 1 mps 748 mmHg 60%
    12:00 +32°C° 0 mm 1 mps 748 mmHg 58%
    13:00 +34°C° 0 mm 2 mps 747 mmHg 55%
    14:00 +34°C° 0 mm 2 mps 746 mmHg 53%
    15:00 +34°C° 0 mm 2 mps 746 mmHg 58%
    16:00 +32°C° 0 mm 2 mps 746 mmHg 62%
    17:00 +31°C° 0 mm 2 mps 746 mmHg 67%
    18:00 +30°C° 0.1 mm 2 mps 747 mmHg 71%
    19:00 +29°C° 0.1 mm 1 mps 747 mmHg 75%
    20:00 +28°C° 0.1 mm 1 mps 748 mmHg 79%
    21:00 +27°C° 0.2 mm 1 mps 748 mmHg 82%
    22:00 +27°C° 0.2 mm 1 mps 748 mmHg 85%
    23:00 +27°C° 0.2 mm 1 mps 748 mmHg 87%

    Tomorrow, 18 November, Sunday

    Time Temperature Precipitation Wind Pressure Humidity
    00:00 +26°C° 0.1 mm 1 mps 748 mmHg 88%
    01:00 +26°C° 0.1 mm 1 mps 747 mmHg 89%
    02:00 +24°C° 0.1 mm 0 mps 747 mmHg 90%
    03:00 +26°C° 0 mm 1 mps 747 mmHg 90%
    04:00 +26°C° 0 mm 1 mps 747 mmHg 91%
    05:00 +25°C° 0 mm 1 mps 747 mmHg 91%
    06:00 +27°C° 0 mm 1 mps 748 mmHg 86%
    07:00 +28°C° 0 mm 1 mps 749 mmHg 81%
    08:00 +29°C° 0 mm 1 mps 749 mmHg 77%
    09:00 +30°C° 0 mm 2 mps 749 mmHg 71%
    10:00 +31°C° 0 mm 2 mps 749 mmHg 66%
    11:00 +34°C° 0 mm 3 mps 749 mmHg 61%
    12:00 +34°C° 0.2 mm 3 mps 748 mmHg 60%
    13:00 +34°C° 0.2 mm 3 mps 747 mmHg 59%
    14:00 +34°C° 0.2 mm 3 mps 746 mmHg 58%
    15:00 +33°C° 0.2 mm 3 mps 746 mmHg 63%
    16:00 +31°C° 0.2 mm 3 mps 746 mmHg 68%
    17:00 +30°C° 0.2 mm 3 mps 746 mmHg 74%
    18:00 +29°C° 0 mm 3 mps 747 mmHg 77%
    19:00 +28°C° 0 mm 2 mps 748 mmHg 81%
    20:00 +27°C° 0 mm 2 mps 749 mmHg 85%
    21:00 +27°C° 0.1 mm 2 mps 749 mmHg 87%
    22:00 +27°C° 0.1 mm 2 mps 749 mmHg 88%
    23:00 +26°C° 0.1 mm 1 mps 749 mmHg 90%

    Day after tomorrow, 19 November, Monday

    Time Temperature Precipitation Wind Pressure Humidity
    00:00 +26°C° 0.1 mm 1 mps 748 mmHg 90%
    01:00 +26°C° 0.1 mm 2 mps 748 mmHg 91%
    02:00 +26°C° 0.1 mm 2 mps 747 mmHg 92%
    03:00 +26°C° 0 mm 2 mps 748 mmHg 91%
    04:00 +26°C° 0 mm 2 mps 748 mmHg 91%
    05:00 +25°C° 0 mm 2 mps 748 mmHg 91%
    06:00 +27°C° 0 mm 2 mps 748 mmHg 87%
    07:00 +28°C° 0 mm 2 mps 749 mmHg 82%
    08:00 +29°C° 0 mm 3 mps 750 mmHg 78%
    09:00 +30°C° 0.1 mm 3 mps 749 mmHg 73%
    10:00 +31°C° 0.1 mm 3 mps 749 mmHg 68%
    11:00 +33°C° 0.1 mm 4 mps 749 mmHg 64%
    12:00 +33°C° 0.9 mm 4 mps 748 mmHg 64%
    13:00 +33°C° 0.9 mm 4 mps 748 mmHg 65%
    14:00 +33°C° 0.9 mm 4 mps 747 mmHg 65%
    15:00 +32°C° 0.6 mm 4 mps 747 mmHg 69%
    16:00 +30°C° 0.6 mm 4 mps 747 mmHg 74%
    17:00 +29°C° 0.6 mm 3 mps 748 mmHg 78%
    18:00 +28°C° 0.1 mm 3 mps 748 mmHg 82%
    19:00 +27°C° 0.1 mm 2 mps 749 mmHg 85%
    20:00 +27°C° 0.1 mm 2 mps 750 mmHg 88%
    21:00 +27°C° 0.1 mm 2 mps 750 mmHg 89%
    22:00 +26°C° 0.1 mm 2 mps 750 mmHg 89%
    23:00 +26°C° 0.1 mm 2 mps 749 mmHg 90%

    20 November, Tuesday

    Time Temperature Precipitation Wind Pressure Humidity
    00:00 +26°C° 0.1 mm 2 mps 749 mmHg 91%
    01:00 +26°C° 0.1 mm 2 mps 748 mmHg 91%
    02:00 +26°C° 0.1 mm 2 mps 748 mmHg 91%
    03:00 +25°C° 0.3 mm 2 mps 748 mmHg 91%
    04:00 +25°C° 0.3 mm 2 mps 748 mmHg 91%
    05:00 +25°C° 0.3 mm 2 mps 748 mmHg 91%
    06:00 +26°C° 0.2 mm 3 mps 749 mmHg 88%
    07:00 +27°C° 0.2 mm 3 mps 750 mmHg 84%
    08:00 +28°C° 0.2 mm 4 mps 750 mmHg 81%
    09:00 +28°C° 0.4 mm 4 mps 750 mmHg 78%
    10:00 +29°C° 0.4 mm 4 mps 750 mmHg 76%
    11:00 +29°C° 0.4 mm 4 mps 749 mmHg 74%
    12:00 +29°C° 1.3 mm 4 mps 748 mmHg 77%
    13:00 +28°C° 1.3 mm 4 mps 748 mmHg 81%
    14:00 +27°C° 1.3 mm 4 mps 747 mmHg 85%
    15:00 +27°C° 0.9 mm 4 mps 747 mmHg 87%
    16:00 +26°C° 0.9 mm 4 mps 747 mmHg 89%
    17:00 +26°C° 0.9 mm 4 mps 747 mmHg 91%
    18:00 +26°C° 1 mm 4 mps 748 mmHg 92%
    19:00 +26°C° 1 mm 4 mps 749 mmHg 92%
    20:00 +26°C° 1 mm 4 mps 750 mmHg 92%
    21:00 +26°C° 1.6 mm 3 mps 750 mmHg 93%
    22:00 +25°C° 1.6 mm 3 mps 750 mmHg 93%
    23:00 +25°C° 1.6 mm 3 mps 749 mmHg 94%

    21 November, Wednesday

    Time Temperature Precipitation Wind Pressure Humidity
    00:00 +25°C° 3 mm 3 mps 749 mmHg 94%
    01:00 +25°C° 3 mm 3 mps 748 mmHg 94%
    02:00 +25°C° 3 mm 3 mps 748 mmHg 94%
    03:00 +25°C° 4.3 mm 3 mps 748 mmHg 94%
    04:00 +25°C° 4.3 mm 3 mps 748 mmHg 94%
    05:00 +25°C° 4.3 mm 3 mps 748 mmHg 94%
    06:00 +25°C° 6.7 mm 3 mps 748 mmHg 94%
    07:00 +25°C° 6.7 mm 3 mps 749 mmHg 94%
    08:00 +26°C° 6.7 mm 3 mps 750 mmHg 94%
    09:00 +26°C° 4.5 mm 4 mps 749 mmHg 93%
    10:00 +26°C° 4.5 mm 4 mps 749 mmHg 93%
    11:00 +26°C° 4.5 mm 4 mps 749 mmHg 92%
    12:00 +26°C° 1.9 mm 4 mps 748 mmHg 92%
    13:00 +26°C° 1.9 mm 4 mps 748 mmHg 92%
    14:00 +26°C° 1.9 mm 4 mps 747 mmHg 91%
    15:00 +26°C° 1 mm 4 mps 747 mmHg 92%
    16:00 +26°C° 1 mm 4 mps 747 mmHg 92%
    17:00 +26°C° 1 mm 4 mps 748 mmHg 93%
    18:00 +26°C° 0.6 mm 4 mps 748 mmHg 93%
    19:00 +25°C° 0.6 mm 4 mps 749 mmHg 94%
    20:00 +25°C° 0.6 mm 4 mps 750 mmHg 94%
    21:00 +25°C° 0.4 mm 4 mps 750 mmHg 94%
    22:00 +25°C° 0.4 mm 3 mps 750 mmHg 94%
    23:00 +25°C° 0.4 mm 3 mps 749 mmHg 94%

    22 November, Thursday

    Time Temperature Precipitation Wind Pressure Humidity
    00:00 +25°C° 0.2 mm 3 mps 749 mmHg 94%
    01:00 +25°C° 0.2 mm 3 mps 748 mmHg 95%
    02:00 +24°C° 0.2 mm 3 mps 748 mmHg 95%
    03:00 +24°C° 0.2 mm 3 mps 748 mmHg 95%
    04:00 +24°C° 0.2 mm 3 mps 748 mmHg 95%
    05:00 +24°C° 0.2 mm 3 mps 749 mmHg 95%
    06:00 +25°C° 0.2 mm 3 mps 749 mmHg 94%
    07:00 +25°C° 0.2 mm 3 mps 750 mmHg 92%
    08:00 +26°C° 0.2 mm 3 mps 751 mmHg 91%
    09:00 +27°C° 0.4 mm 3 mps 750 mmHg 88%
    10:00 +27°C° 0.4 mm 3 mps 750 mmHg 85%
    11:00 +28°C° 0.4 mm 4 mps 750 mmHg 82%
    12:00 +28°C° 0.8 mm 3 mps 749 mmHg 82%
    13:00 +28°C° 0.8 mm 3 mps 748 mmHg 82%
    14:00 +28°C° 0.8 mm 3 mps 747 mmHg 83%
    15:00 +27°C° 0.5 mm 3 mps 748 mmHg 85%
    16:00 +27°C° 0.5 mm 3 mps 748 mmHg 88%
    17:00 +26°C° 0.5 mm 2 mps 748 mmHg 91%
    18:00 +26°C° 0.2 mm 2 mps 749 mmHg 91%
    19:00 +26°C° 0.2 mm 2 mps 749 mmHg 92%
    20:00 +26°C° 0.2 mm 2 mps 750 mmHg 92%
    21:00 +25°C° 0.1 mm 2 mps 750 mmHg 93%
    22:00 +25°C° 0.1 mm 2 mps 750 mmHg 93%
    23:00 +25°C° 0.1 mm 2 mps 750 mmHg 94%
    Show more